Regional Weather Roundup
Issued by NWS

Home | Current Version | Previous Version | Text Only | Print | Product List | Glossary Off
Versions: 1 2 3 4 5 6 7 8 9 10 11 12 13 14 15 16 17 18 19 20 21 22 23 24 25 26 27 28 29 30 31 32 33 34 35 36 37 38 39 40 41 42 43 44 45 46 47 48 49 50

000
ASUS44 KMEG 251810
RWRTN
TENNESSEE HOURLY STATE WEATHER ROUNDUP
NATIONAL WEATHER SERVICE MEMPHIS TN
1200 PM CST THU DEC 25 2014

TNZ002-004-019-021-049-052-054-088>092-251900-
WEST TENNESSEE

CITY           SKY/WX    TMP DP  RH WIND       PRES   REMARKS
MEMPHIS INTL   MOSUNNY   50  35  56 S12       30.17F
NWS MEMPHIS      N/A     50 N/A N/A MISG        N/A
JACKSON        SUNNY     49  34  56 S12       30.17F
DYERSBURG      SUNNY     48  28  46 S7        30.18S
UNION CITY     MOSUNNY   46  37  71 S9        30.15F
PARIS          SUNNY     45  34  65 SW9       30.16S
HUNTINGDON     SUNNY     48  33  56 S8        30.16F
LEXINGTON      SUNNY     46  34  61 S7        30.16F
SAVANNAH       SUNNY     48  36  61 S7        30.18F
$$

TNZ008-025-027-028-033-062-065-066-251900-
NORTH MIDDLE TENNESSEE

CITY           SKY/WX    TMP DP  RH WIND       PRES   REMARKS
NASHVILLE      PTSUNNY   44  34  67 S5        30.19F
CLARKSVILLE    SUNNY     47  34  60 S9        30.16F
SMYRNA         CLOUDY    44  34  68 VRB7      30.21F
COOKEVILLE     CLOUDY    43  36  75 SW7       30.18F
CROSSVILLE     CLOUDY    40  32  73 VRB7      30.18F
$$

TNZ061-075-076-078-094-096-097-251900-
SOUTH MIDDLE TENNESSEE

CITY           SKY/WX    TMP DP  RH WIND       PRES   REMARKS
FAYETTEVILLE   SUNNY     43  34  70 MISG      30.19F
TULLAHOMA      MOSUNNY   43  34  70 VRB6      30.18F
WINCHESTER     MOSUNNY   45  34  65 VRB3      30.19F
MCMINNVILLE    MOSUNNY   43  36  75 CALM      30.19F
COLUMBIA       MOSUNNY   46  39  76 S7        30.17F
SHELBYVILLE    MOSUNNY   45  36  70 SW7       30.20F
$$

TNZ017-018-042-046-047-251900-
NORTHEAST TENNESSEE

CITY           SKY/WX    TMP DP  RH WIND       PRES   REMARKS
TRI CITIES     PTSUNNY   45  32  60 W8        30.16S
ELIZABETHTON   CLOUDY    43  30  61 W7        30.16R
$$

TNZ012-013-036-069-073-074-251900-
CENTRAL EAST TENNESSEE

CITY           SKY/WX    TMP DP  RH WIND       PRES   REMARKS
KNOXVILLE      MOSUNNY   45  32  60 W6        30.20F
OAK RIDGE      CLOUDY    46  33  60 W6        30.21F
GATLINBURG     MOCLDY    48  34  57 W9        30.18F
MORRISTOWN     MOCLDY    45  36  70 NW5       30.19S
$$

TNZ083-085-099-251900-
SOUTHEAST TENNESSEE

CITY           SKY/WX    TMP DP  RH WIND       PRES   REMARKS
CHATTANOOGA    MOSUNNY   46  32  58 CALM      30.21F
$$

SKY/WX REPORTED AS FAIR MEANS FEW OR NO CLOUDS BELOW
12 THOUSAND FEET.




USA.gov is the U.S. government's official web portal to all federal, state and local government web resources and services.